Location: Chuathbaluk
(61.5726°N, 159.2454°W)
Time: 17:38:02
(UTC+00:00)

ZACube-1 - Pass Details

Date: 20 January 2021
Orbit: 583 x 666 km, 97.6° (Epoch: 04 March)

Event Time Altitude Azimuth Distance (km) Brightness Sun altitude
Rises 18:02:37 0° 15° (NNE) 3,023 ? -9.0°
Reaches altitude 10° 18:05:15 10° 1° (N) 2,108 ? -8.8°
Maximum altitude 18:08:45 22° 311° (NW) 1,456 ? -8.4°
Drops below altitude 10° 18:12:15 10° 262° (W) 2,095 ? -8.0°
Sets 18:14:52 0° 247° (WSW) 2,997 ? -7.7°
